Regional Weather Roundup
Issued by NWS

Home | Current Version | Previous Version | Text Only | Print | Product List | Glossary Off
Versions: 1 2 3 4 5 6 7 8 9 10 11 12 13 14 15 16 17 18 19 20 21 22 23 24 25 26 27 28 29 30 31 32 33 34 35 36 37 38 39 40 41 42 43 44 45 46 47 48 49 50

000
ASUS45 KABQ 171501
RWRNM
NEW MEXICO REGIONAL WEATHER ROUNDUP
NATIONAL WEATHER SERVICE ALBUQUERQUE NM
900 AM MDT THU AUG 17 2017

NOTE: "FAIR" MEANS FEW OR NO CLOUDS BELOW 12,000 FEET AGL WITH NO
       SIGNIFICANT WEATHER OR OBSTRUCTIONS TO VISION.

      THIS PRODUCT IS RELEASED AS TWO VERSIONS.  ONE VERSION NEAR
      THE TOP OF THE HOUR CONTAINING PRELIMINARY DATA FROM ALBUQUERQUE
      AND OTHER STATIONS.  A FINAL VERSION WITH ADDITIONAL DATA IS
      ISSUED ABOUT 10 MINUTES AFTER THE HOUR.

NMZ501-503-504-510>518-171600-
NORTHWEST PLATEAU/NORTHCENTRAL MOUNTAINS

CITY           SKY/WX    TMP DP  RH WIND       PRES   REMARKS
FARMINGTON     FAIR      64  35  34 E6        30.24S
LOS ALAMOS     FAIR      66  42  40 S6        30.37R
SANTA FE       FAIR      70  44  39 CALM      30.30S
TAOS           PTSUNNY   63  39  41 CALM      30.39R
ANGEL FIRE     PTSUNNY   52  42  69 CALM      30.46S

$$
NMZ402-403-502-505>509-171600-
WESTCENTRAL MOUNTAINS/SOUTHWEST MOUNTAINS

CITY           SKY/WX    TMP DP  RH WIND       PRES   REMARKS
GALLUP         FAIR      66  38  35 CALM      30.33R
GRANTS         FAIR      67  32  27 NW3       30.34S
SILVER CITY    FAIR      75  43  31 NW6       30.24S

$$
NMZ407-409-411-412-171600-
SOUTHERN DESERTS

CITY           SKY/WX    TMP DP  RH WIND       PRES   REMARKS
DEMING         FAIR      69  47  45 CALM      30.17S
LAS CRUCES     FAIR      79  42  26 W3        30.18R
HOLLOMAN AFB   FAIR      78  51  39 NW3       30.16S
ALAMOGORDO     FAIR      77  50  38 NW6       30.16S
T OR C         FAIR      78  38  23 W7        30.20R

$$
NMZ519>523-171600-
CENTRAL VALLEYS/CENTRAL HIGHLANDS

CITY           SKY/WX    TMP DP  RH WIND       PRES   REMARKS
ALBUQUERQUE    FAIR      72  42  34 NE3       30.24S
DOUBLE EAGLE   MOSUNNY   72  39  30 VRB6      30.27S
CLINES CORNERS FAIR      65  51  60 E6        30.36R
BELEN          NOT AVBL
SOCORRO        FAIR      74  38  27 CALM      30.21S

$$
NMZ524>526-539-540-171600-
SOUTHCENTRAL MOUNTAINS

CITY           SKY/WX    TMP DP  RH WIND       PRES   REMARKS
RUIDOSO        FAIR      70  46  43 N3        30.36S

$$
NMZ527>531-171600-
NORTHEAST HIGHLANDS/NORTHEAST PLAINS

CITY           SKY/WX    TMP DP  RH WIND       PRES   REMARKS
LAS VEGAS      FAIR      62  51  67 NE6       30.35S
RATON          FAIR      62  54  74 E3        30.32R
CLAYTON        FAIR      67  59  75 S8        30.23S

$$
NMZ532>537-171600-
EASTCENTRAL PLAINS

CITY           SKY/WX    TMP DP  RH WIND       PRES   REMARKS
SANTA ROSA     FAIR      69  57  67 CALM      30.21R
TUCUMCARI      FAIR      76  60  57 E5        30.15S
CANNON AFB     FAIR      74  74 100 SE8       30.20S
CLOVIS AIRPORT FAIR      72  66  81 SE7       30.20R

$$
NMZ028-029-538-171600-
SOUTHEAST PLAINS

CITY           SKY/WX    TMP DP  RH WIND       PRES   REMARKS
ROSWELL        FAIR      77  58  51 VRB5      30.12S
ARTESIA        FAIR      79  63  57 S7        30.12S
CARLSBAD       FAIR      76  68  76 CALM      30.09S
HOBBS          SUNNY     75  66  73 S6        30.13S


$$




USA.gov is the U.S. government's official web portal to all federal, state and local government web resources and services.